DW8618 Nerja ES current weather conditions

sailwx.info

Wind from 261 at 6 knots gusting 13

Air temperature 29.4° C
Dewpoint 13.6° C

Last reported at 2020-Sep-24 20:01 UTC.
Time now 2020-Sep-24 21:13 UTC

Location: N 36°46' W 003°52'.
View on Google Maps.

See reports from other nearby stations

  
Tides and Currents Weather Stations Pressure Air Temp Water Temp Dewpoint Dewpoint Depression Visibility Wind Speed Wind Dir Waves Ship Positions
date/time (UTC)wind fromknots sea level pressurealtimeterstation pressurevisibilityair tempwater tempwave heightnotes
2020-Sep-24 20:01 261 6 gusting 13 29.4
2020-Sep-24 19:46 312 6 gusting 10 30.0
2020-Sep-24 19:30 301 5 gusting 9 30.0
2020-Sep-24 19:15 251 5 gusting 11 30.0
2020-Sep-24 19:01 271 5 gusting 8 30.6
2020-Sep-24 18:45 272 5 gusting 10 30.6
2020-Sep-24 18:31 265 6 gusting 12 31.1
2020-Sep-24 18:15 264 5 gusting 12 31.1
2020-Sep-24 18:01 295 6 gusting 10 31.7
2020-Sep-24 17:45 286 5 gusting 11 31.7
2020-Sep-24 17:30 264 5 gusting 10 32.2
2020-Sep-24 17:15 297 5 gusting 12 32.2
2020-Sep-24 17:01 297 6 gusting 13 32.8
2020-Sep-24 16:45 264 5 gusting 14 32.8
2020-Sep-24 16:31 300 4 gusting 9 33.3
2020-Sep-24 16:15 268 8 gusting 16 33.3
2020-Sep-24 16:01 282 7 gusting 15 33.9
2020-Sep-24 15:46 265 5 gusting 13 33.9
2020-Sep-24 15:30 298 3 gusting 12 34.4
2020-Sep-24 15:16 281 8 gusting 13 34.4
2020-Sep-24 15:01 262 8 gusting 247 34.4
2020-Sep-24 14:45 262 5 gusting 19 33.9
2020-Sep-24 14:31 300 4 gusting 19 33.3
2020-Sep-24 14:15 268 6 gusting 16 31.1
2020-Sep-24 14:01 183 29.4
2020-Sep-24 13:46 172 0 gusting 2 29.4
2020-Sep-24 13:30 175 0 gusting 5 30.6
2020-Sep-24 13:15 130 31.1
2020-Sep-24 13:01 051 0 gusting 5 31.1
2020-Sep-24 12:46 178 30.6
2020-Sep-24 12:31 111 30.6
2020-Sep-24 12:15 128 30.0
2020-Sep-24 12:01 130 30.0
2020-Sep-24 11:45 148 1 gusting 4 29.4
2020-Sep-24 11:30 178 28.9
2020-Sep-24 11:15 186 28.3
2020-Sep-24 11:01 086 28.3
2020-Sep-24 10:45 202 27.2
2020-Sep-24 10:30 188 27.2
2020-Sep-24 10:15 180 26.7
2020-Sep-24 10:01 165 27.2
2020-Sep-24 09:46 174 27.2
2020-Sep-24 09:30 173 27.8
2020-Sep-24 09:15 144 27.2
2020-Sep-24 09:01 140 27.2
2020-Sep-24 08:46 138 26.7
2020-Sep-24 08:30 139 25.6
2020-Sep-24 08:15 139 25.6
2020-Sep-24 08:01 138 25.6
2020-Sep-24 07:45 138 24.4
2020-Sep-24 07:31 138 24.4
2020-Sep-24 07:16 355 25.0
2020-Sep-24 07:01 326 24.4
2020-Sep-24 06:45 325 2 gusting 6 23.9
2020-Sep-24 06:31 360 23.3
2020-Sep-24 06:16 348 23.3
2020-Sep-24 06:01 009 23.3
2020-Sep-24 05:46 005 23.3
2020-Sep-24 05:30 360 23.3
2020-Sep-24 05:15 360 23.3
2020-Sep-24 05:01 355 23.3
2020-Sep-24 04:45 020 23.3
2020-Sep-24 04:30 323 23.3
2020-Sep-24 04:15 327 23.3
2020-Sep-24 04:01 350 23.3
2020-Sep-24 03:46 011 23.3
2020-Sep-24 03:30 015 22.8
2020-Sep-24 03:15 340 22.8
2020-Sep-24 03:01 351 22.8
2020-Sep-24 02:45 333 22.8
2020-Sep-24 02:31 355 22.8
2020-Sep-24 02:15 360 22.8
2020-Sep-24 02:01 005 23.3
2020-Sep-24 01:45 010 23.3
2020-Sep-24 01:30 005 23.3
2020-Sep-24 01:15 005 23.3
2020-Sep-24 01:01 360 23.3
2020-Sep-24 00:45 360 23.3
2020-Sep-24 00:30 360 23.3
2020-Sep-24 00:15 005 23.3
2020-Sep-24 00:01 355 23.3
2020-Sep-23 23:30 005 23.3
2020-Sep-23 23:15 013 23.9
2020-Sep-23 23:01 044 23.9
2020-Sep-23 22:46 045 23.9
2020-Sep-23 22:30 044 23.9
2020-Sep-23 22:15 044 24.4
2020-Sep-23 22:01 045 24.4
2020-Sep-23 21:45 045 23.9
2020-Sep-23 21:31 045 23.9
2020-Sep-23 21:15 045 23.9
2020-Sep-23 21:01 024 23.9
2020-Sep-23 20:45 024 23.9
2020-Sep-23 20:30 026 23.9
2020-Sep-23 20:15 026 23.9
2020-Sep-23 20:01 026 23.9
2020-Sep-23 19:45 052 23.9
2020-Sep-23 19:31 132 23.9
2020-Sep-23 19:16 130 23.9
2020-Sep-23 19:01 100 25.0
2020-Sep-23 18:46 098 25.0
2020-Sep-23 18:30 036 25.6
2020-Sep-23 18:16 339 25.6
2020-Sep-23 18:01 349 25.6
2020-Sep-23 17:46 225 25.6
2020-Sep-23 17:30 223 25.6
2020-Sep-23 17:15 214 26.1
2020-Sep-23 17:01 281 25.6
2020-Sep-23 16:45 262 0 gusting 6 26.1
2020-Sep-23 16:31 221 1 gusting 6 27.2
2020-Sep-23 16:15 238 27.2
2020-Sep-23 16:01 267 1 gusting 6 27.2
2020-Sep-23 15:45 202 26.7
2020-Sep-23 15:30 286 0 gusting 6 26.1
2020-Sep-23 15:15 184 2 gusting 9 25.6
2020-Sep-23 15:01 208 3 gusting 8 25.6
2020-Sep-23 14:46 207 1 gusting 7 26.7
2020-Sep-23 14:31 184 2 gusting 9 27.2
2020-Sep-23 14:15 159 27.2
2020-Sep-23 14:01 225 26.7
2020-Sep-23 13:45 230 25.6
2020-Sep-23 13:30 234 1 gusting 7 26.1
2020-Sep-23 13:15 183 25.0
2020-Sep-23 13:01 215 26.1
2020-Sep-23 12:46 184 0 gusting 5 26.1
2020-Sep-23 12:30 144 1 gusting 5 26.1
2020-Sep-23 12:16 202 1 gusting 6 26.7
2020-Sep-23 12:01 195 2 gusting 6 26.1
2020-Sep-23 11:45 221 26.1
2020-Sep-23 11:30 190 0 gusting 4 26.1
2020-Sep-23 11:15 255 0 gusting 5 26.1
2020-Sep-23 11:01 223 25.6
2020-Sep-23 10:45 206 25.0
2020-Sep-23 10:31 254 0 gusting 5 24.4
2020-Sep-23 10:15 173 0 gusting 5 25.0
2020-Sep-23 10:01 211 25.6
2020-Sep-23 09:46 286 0 gusting 3 24.4
2020-Sep-23 09:31 208 23.3
2020-Sep-23 09:15 174 22.8
2020-Sep-23 09:01 163 23.3
2020-Sep-23 08:45 342 22.8
2020-Sep-23 08:31 360 22.2
2020-Sep-23 08:15 190 21.7
2020-Sep-23 08:01 175 21.7
2020-Sep-23 07:45 169 22.2
2020-Sep-23 07:31 116 22.8
2020-Sep-23 07:15 144 24.4
2020-Sep-23 07:01 209 0 gusting 3 25.6
2020-Sep-23 06:45 336 3 gusting 13 25.0
2020-Sep-23 06:31 333 7 gusting 13 22.8
2020-Sep-23 06:15 330 6 gusting 9 21.7
2020-Sep-23 06:01 336 21.1
2020-Sep-23 05:45 322 21.7
2020-Sep-23 05:31 322 21.1
2020-Sep-23 05:16 322 20.6
2020-Sep-23 05:01 322 20.6
2020-Sep-23 04:46 360 20.6
2020-Sep-23 04:30 350 20.6
2020-Sep-23 04:15 344 20.6
2020-Sep-23 04:01 013 21.1
2020-Sep-23 03:45 012 21.7
2020-Sep-23 03:30 012 21.1
2020-Sep-23 03:15 012 21.1
2020-Sep-23 03:01 011 20.6
2020-Sep-23 02:45 019 21.1
2020-Sep-23 02:30 020 21.7
2020-Sep-23 02:16 019 20.6
2020-Sep-23 02:01 022 20.6
2020-Sep-23 01:46 011 20.6
2020-Sep-23 01:30 009 20.6
2020-Sep-23 01:16 009 20.6
2020-Sep-23 01:01 005 20.6
2020-Sep-23 00:46 360 21.1
2020-Sep-23 00:30 346 21.1
2020-Sep-23 00:16 355 21.7
2020-Sep-23 00:01 146 21.7
2020-Sep-22 23:46 146 22.2
2020-Sep-22 23:30 146 22.2
2020-Sep-22 23:15 146 22.2
2020-Sep-22 23:01 146 22.2
2020-Sep-22 22:45 146 22.2
2020-Sep-22 22:31 146 22.2
2020-Sep-22 22:15 146 22.2
2020-Sep-22 22:01 146 22.8
2020-Sep-22 21:45 146 22.8
2020-Sep-22 21:30 146 22.8
2020-Sep-22 21:16 148 22.8
2020-Sep-22 21:01 152 22.8